STARLINK-3350, 51105

Orbit data source: Space-Track

STARLINK-3350, 51105 is a payload satellite owned by SpaceX/Seattle (US) in LEO that was launched on Wed, 19 Jan 2022 UTC via an FALCON 9 launch vehicle from the Air Force Eastern Test Range (AFETR). Payload-class satellites include a variety of spacecraft equipped with specific instruments for various scientific and technological missions. These include communications satellites like Starlink; space stations such as the ISS; scientific satellites like the Hubble; Earth observation satellites from companies like Planet Labs, Umbra, and HawkEye 360; GPS; miniature CubeSats for education and research; and military/defense satellites.

Loading next visibility...
Identifier
51105, 2022-005B
Orbit
LEO
Country
Flag of USUS
Related business
Manufacturer
SpaceX/Seattle
Mission
Operational Commercial Communications
Bus & Motor
STARLINK, Unknown motor
Mass
297 kg wet, ~275 kg dry
Launch date (UTC)
2022-01-19 (4 years ago)
Launch vehicle
FALCON 9
Launch site
Air Force Eastern Test Range (AFETR)
Object type
Payload
Rocket body
Debris
Shape & HBR
Box + 1 Pan, 10.1 m
Radar Cross Section
13.562 m², Large (>1 m²)

Expand to show TLE details & history
Last TLE update: 9 hours ago

TLE from 9 hours ago
0 STARLINK-3350
1 51105U 22005B   26094.21619437 -.00001164  00000-0 -55023-4 0  9998
2 51105  53.2171 174.5300 0001504  86.3896 273.7268 15.08841243232731
Epoch: 2026-04-04T05:11Z
TLE epoch observation values (Epoch: 2026-04-04T05:11:19.193Z)
Latitude
-0.00004°
Longitude
-95.83915°
Altitude
540.57 km
Speed
7.593 km/s
True Right ascension
11h 38m 07s
True Declination
0° 00' 00"
Sunlit
Object was in full shadow at epoch
Visualization orbit readout
Latitude
Unknown
Longitude
Unknown
Altitude
Unknown
Speed
Unknown
Apparent Right ascension
Unknown
Apparent Declination
Unknown
Sunlit
N/A
Visualization observer readout
Local Sidereal Time
20:31:12
Azimuth
Unknown
Elevation
Unknown
Doppler factor
Unknown
Orbital elements
Apogee altitude
541.025 km
Perigee altitude
538.944 km
Semi-major axis
6,918.122 km
Eccentricity
0.00015
Inclination
53.2171°
RAAN
174.53°
Arg. of periapsis
86.3896°
True anomaly
273.7096°
Mean anomaly
273.7268°
Eccentric anomaly
273.7182°
Mean motion
3.77191 °/min
Orbital period
95.44 mins
BSTAR
-0.000055023
Loading maneuver chart data...
Computing Atmospheric mass density...
Loading historical data...
Loading historical data...
Loading historical data...
Loading historical data...
Loading historical data...
Loading historical data...
Loading historical data...

Documentation

Showing up to 5 results
|